Location: Hartford
(41.7640°N, 72.6860°W)
Time: 21:24:32
(UTC-04:00)

Amateur Radio Satellites - All Passes

Search period start: 29 May 2017 20:54
Search period end: 30 May 2017 20:54
Location: Hartford, 41.7640°N, 72.6860°W

Satellite Date Start Highest point End Downlink Frequencies (MHz)
Time Altitude Azimuth
ISS 29 May 20:57:32 21:00:28 28° 337° (NNW) 21:03:24 437.550
AO-73 29 May 21:01:55 21:06:05 58° 260° (W) 21:10:24 145.935
EO-88 29 May 21:02:46 21:05:26 19° 68° (ENE) 21:08:07 145.990 - 145.960
SO-50 29 May 21:05:21 21:09:13 28° 114° (ESE) 21:13:05 436.795
M-CUBED/EXP-1 PRIME 29 May 21:05:38 21:08:14 22° 101° (ESE) 21:10:51 437.505
ZACube-1 29 May 21:18:29 21:22:21 34° 264° (W) 21:26:19 437.345
STRAND 1 29 May 21:19:30 21:24:01 31° 293° (WNW) 21:28:31 437.568
Tancredo 1 29 May 21:28:54 21:30:55 16° 348° (NNW) 21:32:56 437.200
FO-29 29 May 21:43:42 21:48:58 23° 93° (E) 21:54:36 435.910
TIGRISAT 29 May 21:47:43 21:50:18 15° 91° (E) 21:52:52 435.000
DELFI C3 29 May 21:50:09 21:54:08 75° 257° (WSW) 21:58:08 145.870
Oscar 11 29 May 22:09:11 22:11:36 15° 269° (W) 22:14:01 .
UNISAT 6 29 May 22:19:13 22:23:26 33° 97° (E) 22:27:40 437.425
ISS 29 May 22:35:46 22:37:45 15° 357° (N) 22:39:45 437.550
EO-88 29 May 22:35:48 22:38:56 27° 264° (W) 22:42:06 145.990 - 145.960
M-CUBED/EXP-1 PRIME 29 May 22:40:16 22:42:37 18° 297° (WNW) 22:44:57 437.505
SO-50 29 May 22:45:21 22:49:34 35° 311° (NW) 22:53:45 436.795
ESTCUBE 1 29 May 22:54:48 22:58:57 37° 70° (ENE) 23:03:08 437.505/2401.250
PRISM 29 May 22:57:07 23:01:11 79° 284° (WNW) 23:05:14 437.425
SPROUT 29 May 23:04:32 23:06:06 12° 62° (ENE) 23:07:40 437.525
Tancredo 1 29 May 23:05:48 23:07:34 14° 8° (N) 23:09:20 437.200
LO-87 29 May 23:06:30 23:10:03 87° 72° (ENE) 23:13:35 145.935 - 145.965
TIGRISAT 29 May 23:22:44 23:27:18 58° 286° (WNW) 23:31:54 435.000
FO-29 29 May 23:27:45 23:34:17 66° 287° (WNW) 23:41:36 435.910
VELOX 1 29 May 23:35:21 23:39:01 26° 67° (ENE) 23:42:40 145.980
EO-79 29 May 23:40:35 23:43:09 16° 92° (E) 23:45:44 145.935-145.965
50 SAT 29 May 23:54:26 23:56:42 17° 67° (ENE) 23:58:58 437.505
UNISAT 6 29 May 23:56:10 23:59:59 26° 292° (WNW) 00:03:49 437.425
DX 1 29 May 23:59:55 00:02:48 18° 64° (ENE) 00:05:40 434.975-435.025
RS-15 30 May 00:09:12 00:18:00 24° 99° (E) 00:26:55 29.354- 29.394
ISS 30 May 00:12:34 00:15:09 21° 17° (NNE) 00:17:44 437.550
AIST 2D 30 May 00:16:07 00:19:43 89° 252° (WSW) 00:23:16 435.315
YUBILEINY 30 May 00:16:30 00:24:18 39° 86° (E) 00:32:09 435.215
NANOSAT C BR1 30 May 00:22:16 00:26:18 40° 98° (E) 00:30:19 145.865
POLYITAN 1 30 May 00:30:13 00:34:26 56° 100° (E) 00:38:39 437.675
DUCHIFAT 1 30 May 00:30:53 00:34:59 45° 99° (E) 00:39:04 145.980
ESTCUBE 1 30 May 00:32:22 00:35:51 22° 266° (W) 00:39:21 437.505/2401.250
BUGSAT 1 30 May 00:35:25 00:37:56 15° 92° (E) 00:40:25 437.445
SPROUT 30 May 00:37:13 00:41:26 67° 259° (W) 00:45:40 437.525
QB50P2 30 May 00:39:04 00:43:22 78° 103° (ESE) 00:47:39 145.880/145.840
Tancredo 1 30 May 00:41:06 00:43:58 36° 28° (NNE) 00:46:49 437.200
VELOX 1 30 May 01:11:30 01:15:21 29° 264° (W) 01:19:13 145.980
EO-79 30 May 01:15:03 01:19:08 45° 288° (WNW) 01:23:12 145.935-145.965
FO-29 30 May 01:15:46 01:18:21 12° 304° (NW) 01:21:00 435.910
UKube-1 30 May 01:18:52 01:23:11 83° 73° (ENE) 01:27:30 .
Oscar 19 30 May 01:20:04 01:23:41 19° 92° (E) 01:27:14 437.125/150
50 SAT 30 May 01:26:21 01:29:21 27° 263° (W) 01:32:21 437.505
Gurwin Techsat 1B 30 May 01:28:06 01:30:42 14° 90° (E) 01:33:17 435.225
DX 1 30 May 01:34:28 01:38:38 45° 261° (W) 01:42:48 434.975-435.025
ITUPSAT 1 30 May 01:47:42 01:50:43 17° 62° (ENE) 01:53:44 437.325
ISS 30 May 01:48:43 01:52:01 89° 215° (SW) 01:55:17 437.550
NANOSAT C BR1 30 May 01:58:47 02:01:42 18° 295° (WNW) 02:04:38 145.865
POLYITAN 1 30 May 02:07:29 02:09:44 14° 297° (WNW) 02:12:01 437.675
DUCHIFAT 1 30 May 02:07:36 02:10:18 17° 295° (WNW) 02:12:58 145.980
BUGSAT 1 30 May 02:09:32 02:13:29 44° 288° (WNW) 02:17:27 437.445
YUBILEINY 30 May 02:12:34 02:20:52 47° 286° (WNW) 02:29:18 435.215
RS-15 30 May 02:16:38 02:28:47 89° 118° (ESE) 02:41:16 29.354- 29.394
Tancredo 1 30 May 02:17:00 02:19:36 26° 224° (SW) 02:22:12 437.200
BEESAT 30 May 02:17:14 02:21:26 32° 68° (ENE) 02:25:40 436.000
QB50P2 30 May 02:17:39 02:18:30 11° 299° (WNW) 02:19:23 145.880/145.840
AO-85 30 May 02:45:04 02:46:48 12° 110° (ESE) 02:48:31 145.980
Oscar 19 30 May 02:58:17 03:03:17 52° 289° (WNW) 03:08:15 437.125/150
MOZHAYETS 4 30 May 03:03:07 03:07:33 49° 72° (ENE) 03:12:02
AO-7 30 May 03:04:45 03:10:36 20° 92° (E) 03:16:25 .
Gurwin Techsat 1B 30 May 03:05:52 03:11:12 75° 286° (WNW) 03:16:29 435.225
PCSat 30 May 03:12:07 03:17:18 43° 53° (NE) 03:22:27 145.827
O/OREOS (USA 219) 30 May 03:17:24 03:21:54 57° 109° (ESE) 03:26:24 437.305
ITUPSAT 1 30 May 03:23:22 03:28:04 57° 259° (W) 03:32:48 437.325
ISS 30 May 03:27:40 03:28:00 10° 231° (SW) 03:28:20 437.550
KKS-1 30 May 03:30:49 03:33:23 15° 63° (ENE) 03:35:57 437.445
STARS 30 May 03:52:31 03:53:36 11° 60° (ENE) 03:54:42 437.465
BEESAT 30 May 03:55:09 03:59:12 27° 264° (W) 04:03:16 436.000
CUBESAT XI-V 30 May 03:59:31 04:03:47 35° 70° (ENE) 04:08:04 437.345
ITAMSAT 1 30 May 04:07:55 04:13:06 59° 102° (ESE) 04:18:14 435.822/435.867
AO-85 30 May 04:22:38 04:26:45 60° 305° (NW) 04:30:41 145.980
RS-15 30 May 04:32:06 04:43:04 36° 328° (NNW) 04:54:09 29.354- 29.394
BEESAT 2 30 May 04:37:31 04:40:42 23° 113° (ESE) 04:43:57 435.950
MOZHAYETS 4 30 May 04:42:03 04:44:59 17° 269° (W) 04:47:56
BEESAT 3 30 May 04:47:54 04:51:52 88° 111° (ESE) 04:55:54 437.485
Gurwin Techsat 1B 30 May 04:49:07 04:50:12 11° 304° (NW) 04:51:18 435.225
AO-7 30 May 04:55:51 05:04:15 84° 290° (WNW) 05:12:37 .
PCSat 30 May 04:55:55 05:00:29 28° 251° (WSW) 05:05:00 145.827
O/OREOS (USA 219) 30 May 04:58:43 05:01:40 17° 306° (NW) 05:04:39 437.305
KKS-1 30 May 05:05:09 05:09:29 54° 259° (W) 05:13:50 437.445
STARS 30 May 05:24:57 05:29:18 79° 258° (WSW) 05:33:41 437.465
SO-50 30 May 05:35:48 05:39:45 29° 47° (NE) 05:43:42 436.795
CUBESAT XI-V 30 May 05:37:24 05:41:12 24° 266° (W) 05:45:01 437.345
ITAMSAT 1 30 May 05:48:31 05:52:05 19° 298° (WNW) 05:55:38 435.822/435.867
XW-2D 30 May 05:52:27 05:53:36 11° 90° (E) 05:54:43 145.860 - 145.880
XW-2B 30 May 05:59:49 06:01:43 13° 91° (E) 06:03:38 145.730 - 145.750
XW-2F 30 May 06:09:01 06:11:32 17° 93° (E) 06:14:02 145.980 - 146.000
KAITUO 1B 30 May 06:10:17 06:12:18 14° 92° (E) 06:14:18 145.475/437.950
XW-2C 30 May 06:12:53 06:15:44 19° 94° (E) 06:18:33 145.795 - 145.815
BEESAT 2 30 May 06:14:42 06:18:18 32° 310° (NW) 06:21:58 435.950
DOVE 4 30 May 06:20:51 06:24:56 48° 99° (E) 06:29:09 437.250
BEESAT 3 30 May 06:28:15 06:30:02 13° 321° (NW) 06:31:50 437.485
CUTE-I 30 May 06:31:23 06:36:07 31° 96° (E) 06:40:48 437.470
AO-7 30 May 06:50:08 06:55:50 21° 310° (NW) 07:01:33 .
RS-15 30 May 06:51:20 07:00:43 24° 3° (N) 07:09:59 29.354- 29.394
NO-84 30 May 06:52:52 06:56:41 30° 129° (SE) 07:00:29 435.350 FM
LilacSat-2 30 May 06:54:47 06:58:40 68° 101° (E) 07:02:29 437.200
STRAND 1 30 May 06:56:17 07:01:09 47° 71° (ENE) 07:06:03 437.568
SO-50 30 May 07:16:08 07:20:14 35° 245° (WSW) 07:24:20 436.795
SEEDS 30 May 07:24:13 07:25:51 12° 90° (E) 07:27:28 437.485
XW-2D 30 May 07:24:19 07:28:04 51° 286° (WNW) 07:31:47 145.860 - 145.880
NUDT-PHONESAT 30 May 07:28:33 07:32:18 61° 285° (WNW) 07:36:00 437.300
XW-2B 30 May 07:32:28 07:36:08 42° 287° (WNW) 07:39:45 145.730 - 145.750
XW-2F 30 May 07:42:16 07:45:46 33° 289° (WNW) 07:49:12 145.980 - 146.000
KAITUO 1B 30 May 07:42:55 07:46:30 39° 288° (WNW) 07:50:01 145.475/437.950
XW-2C 30 May 07:46:35 07:49:57 29° 290° (WNW) 07:53:17 145.795 - 145.815
M-CUBED/EXP-1 PRIME 30 May 07:50:56 07:54:43 37° 67° (ENE) 07:58:15 437.505
DOVE 4 30 May 07:59:51 08:02:18 15° 295° (WNW) 08:04:47 437.250
CUBEBUG 2 30 May 08:00:07 08:04:01 26° 95° (E) 08:07:57 437.445
UWE-3 30 May 08:02:38 08:05:40 17° 92° (E) 08:08:41 435.000/436.395/437.385
HO-68 30 May 08:04:41 08:11:46 55° 101° (ESE) 08:18:47 435.675
AAUSAT CUBESAT 2 30 May 08:10:38 08:13:33 19° 93° (E) 08:16:28 437.432
CUTE-I 30 May 08:11:21 08:16:08 35° 293° (WNW) 08:20:55 437.470
CUTE 1.7 + AOD 2 30 May 08:16:13 08:20:31 76° 103° (ESE) 08:24:43 437.475
XW-2A 30 May 08:28:45 08:32:12 80° 283° (WNW) 08:35:39 145.665 - 145.685
NO-84 30 May 08:29:56 08:34:11 46° 325° (NW) 08:38:20 435.350 FM
STRAND 1 30 May 08:36:47 08:40:33 21° 267° (W) 08:44:21 437.568
TIGRISAT 30 May 08:47:40 08:49:34 13° 62° (ENE) 08:51:29 435.000
AO-73 30 May 08:49:37 08:53:30 27° 95° (E) 08:57:23 145.935
SEEDS 30 May 08:57:45 09:01:54 57° 286° (WNW) 09:05:59 437.485
ZACube-1 30 May 09:05:44 09:10:07 44° 98° (E) 09:14:30 437.345
RS-15 30 May 09:06:36 09:17:59 40° 36° (NE) 09:28:53 29.354- 29.394
UNISAT 6 30 May 09:18:31 09:22:12 28° 68° (ENE) 09:25:58 437.425
M-CUBED/EXP-1 PRIME 30 May 09:26:25 09:29:13 18° 260° (W) 09:31:53 437.505
DELFI C3 30 May 09:28:29 09:30:21 13° 91° (E) 09:32:12 145.870
CUBEBUG 2 30 May 09:36:29 09:40:36 33° 290° (WNW) 09:44:48 437.445
UWE-3 30 May 09:37:52 09:42:20 50° 287° (WNW) 09:46:50 435.000/436.395/437.385
FO-29 30 May 09:41:20 09:46:21 54° 71° (ENE) 09:51:39 435.910
AAUSAT CUBESAT 2 30 May 09:45:21 09:49:07 35° 289° (WNW) 09:52:51 437.432
PRISM 30 May 09:46:04 09:50:10 75° 75° (ENE) 09:54:17 437.425
HO-68 30 May 09:53:01 09:59:06 31° 300° (WNW) 10:05:09 435.675
Oscar 11 30 May 09:53:39 09:58:02 80° 283° (WNW) 10:02:21 .
CUTE 1.7 + AOD 2 30 May 09:54:48 09:55:41 11° 299° (WNW) 09:56:35 437.475
EO-88 30 May 10:04:07 10:07:06 23° 95° (E) 10:10:05 145.990 - 145.960
NO-84 30 May 10:09:51 10:12:38 16° 344° (NNW) 10:15:20 435.350 FM
TIGRISAT 30 May 10:21:26 10:25:40 64° 259° (WSW) 10:30:02 435.000
AO-73 30 May 10:25:42 10:29:41 30° 291° (WNW) 10:33:41 145.935
YUBILEINY 30 May 10:26:31 10:32:30 19° 61° (ENE) 10:38:25 435.215
EO-79 30 May 10:34:10 10:36:02 13° 62° (ENE) 10:37:53 145.935-145.965
ZACube-1 30 May 10:42:48 10:46:04 20° 294° (WNW) 10:49:21 437.345
AIST 2D 30 May 10:50:39 10:53:47 31° 72° (ENE) 10:56:59 435.315
UNISAT 6 30 May 10:55:18 10:58:53 25° 265° (W) 11:02:32 437.425
DELFI C3 30 May 11:01:36 11:05:22 45° 287° (WNW) 11:09:06 145.870
AO-85 30 May 11:13:56 11:16:15 15° 42° (NE) 11:18:37 145.980
NANOSAT C BR1 30 May 11:14:33 11:18:13 31° 69° (ENE) 11:21:55 145.865
RS-15 30 May 11:19:28 11:31:37 76° 243° (WSW) 11:43:07 29.354- 29.394
POLYITAN 1 30 May 11:22:47 11:26:44 42° 71° (ENE) 11:30:43 437.675
DUCHIFAT 1 30 May 11:22:49 11:26:34 33° 70° (ENE) 11:30:21 145.980
BUGSAT 1 30 May 11:26:50 11:28:07 11° 62° (ENE) 11:29:24 437.445
FO-29 30 May 11:28:36 11:31:58 17° 270° (W) 11:35:25 435.910
QB50P2 30 May 11:31:31 11:35:38 57° 74° (ENE) 11:39:47 145.880/145.840
EO-88 30 May 11:37:46 11:40:42 22° 291° (WNW) 11:43:36 145.990 - 145.960
O/OREOS (USA 219) 30 May 11:49:26 11:51:45 14° 51° (NE) 11:54:02 437.305
NO-84 30 May 11:49:36 11:51:38 13° 6° (N) 11:53:37 435.350 FM
LO-87 30 May 12:06:21 12:09:55 77° 284° (WNW) 12:13:28 145.935 - 145.965
EO-79 30 May 12:07:08 12:11:16 60° 259° (W) 12:15:27 145.935-145.965
YUBILEINY 30 May 12:21:43 12:30:37 88° 83° (E) 12:39:28 435.215
ESTCUBE 1 30 May 12:23:07 12:27:38 78° 102° (ESE) 12:32:06 437.505/2401.250
SPROUT 30 May 12:23:14 12:26:23 20° 93° (E) 12:29:32 437.525
AIST 2D 30 May 12:24:59 12:27:05 15° 268° (W) 12:29:12 435.315
Oscar 19 30 May 12:36:49 12:41:16 29° 66° (ENE) 12:45:43 437.125/150
Gurwin Techsat 1B 30 May 12:48:47 12:52:57 24° 64° (ENE) 12:57:08 435.225
50 SAT 30 May 12:49:24 12:51:29 15° 94° (E) 12:53:33 437.505
NANOSAT C BR1 30 May 12:50:41 12:53:57 22° 266° (W) 12:57:14 145.865
AO-85 30 May 12:53:00 12:57:02 70° 240° (WSW) 13:01:18 145.980
BEESAT 2 30 May 12:54:35 12:57:34 19° 44° (NE) 13:00:30 435.950
BUGSAT 1 30 May 12:58:59 13:02:56 62° 259° (W) 13:06:56 437.445
DUCHIFAT 1 30 May 12:59:14 13:02:19 20° 266° (W) 13:05:25 145.980
POLYITAN 1 30 May 13:00:03 13:02:43 16° 268° (W) 13:05:23 437.675
VELOX 1 30 May 13:00:25 13:04:41 48° 100° (E) 13:08:54 145.980
BEESAT 3 30 May 13:04:26 13:08:24 53° 54° (NE) 13:12:17 437.485
UKube-1 30 May 13:07:15 13:09:18 13° 91° (E) 13:11:20 .
QB50P2 30 May 13:10:10 13:11:48 12° 270° (W) 13:13:25 145.880/145.840
DX 1 30 May 13:22:21 13:26:07 28° 97° (E) 13:29:52 434.975-435.025
NO-84 30 May 13:26:56 13:30:24 27° 27° (NNE) 13:33:36 435.350 FM
O/OREOS (USA 219) 30 May 13:27:11 13:31:41 71° 249° (WSW) 13:36:08 437.305
RS-15 30 May 13:34:59 13:41:46 17° 264° (W) 13:48:26 29.354- 29.394
ITAMSAT 1 30 May 13:50:22 13:52:35 13° 58° (ENE) 13:54:48 435.822/435.867
SPROUT 30 May 13:58:28 14:02:23 36° 289° (WNW) 14:06:17 437.525
ESTCUBE 1 30 May 14:02:19 14:03:46 11° 300° (WNW) 14:05:13 437.505/2401.250
AO-7 30 May 14:03:56 14:10:58 32° 57° (ENE) 14:18:00 .
Oscar 19 30 May 14:15:43 14:20:27 35° 263° (W) 14:25:12 437.125/150
YUBILEINY 30 May 14:20:35 14:26:09 19° 283° (WNW) 14:31:44 435.215
50 SAT 30 May 14:21:26 14:24:23 28° 289° (WNW) 14:27:18 437.505
Gurwin Techsat 1B 30 May 14:27:31 14:32:36 46° 261° (W) 14:37:43 435.225
BEESAT 2 30 May 14:31:38 14:35:35 48° 242° (WSW) 14:39:26 435.950
VELOX 1 30 May 14:37:58 14:40:44 17° 296° (WNW) 14:43:30 145.980
UKube-1 30 May 14:41:26 14:45:39 55° 287° (WNW) 14:49:50 .
BEESAT 3 30 May 14:43:27 14:45:30 14° 251° (WSW) 14:47:33 437.485
DX 1 30 May 14:58:36 15:02:12 26° 293° (WNW) 15:05:46 434.975-435.025
MOZHAYETS 4 30 May 15:00:07 15:01:34 11° 89° (E) 15:03:02
NO-84 30 May 15:04:27 15:08:09 48° 228° (SW) 15:11:30 435.350 FM
ITUPSAT 1 30 May 15:23:36 15:28:00 35° 97° (E) 15:32:23 437.325
ITAMSAT 1 30 May 15:26:07 15:31:17 88° 257° (WSW) 15:36:30 435.822/435.867
BEESAT 30 May 15:53:53 15:58:41 73° 103° (ESE) 16:03:28 436.000
AO-7 30 May 15:55:02 16:03:12 63° 256° (WSW) 16:11:28 .
MOZHAYETS 4 30 May 16:34:35 16:39:14 72° 285° (WNW) 16:43:50
KKS-1 30 May 16:55:58 16:59:44 26° 96° (E) 17:03:28 437.445
XW-2C 30 May 16:56:16 16:57:18 11° 63° (ENE) 16:58:20 145.795 - 145.815
ITUPSAT 1 30 May 17:01:41 17:05:40 26° 294° (WNW) 17:09:38 437.325
STARS 30 May 17:14:49 17:17:50 18° 93° (E) 17:20:52 437.465
DOVE 4 30 May 17:26:26 17:30:47 50° 74° (ENE) 17:34:57 437.250
CUBESAT XI-V 30 May 17:32:25 17:37:06 83° 105° (ESE) 17:41:42 437.345
BEESAT 30 May 17:33:28 17:35:51 14° 300° (WNW) 17:38:13 436.000
LilacSat-2 30 May 17:36:45 17:40:14 33° 71° (ENE) 17:43:45 437.200
CUTE-I 30 May 17:53:20 17:58:27 52° 71° (ENE) 18:03:36 437.470
PCSat 30 May 17:54:10 17:59:04 36° 111° (ESE) 18:03:59 145.827
AO-7 30 May 17:57:12 17:57:33 10° 275° (W) 17:57:53 .
XW-2D 30 May 18:05:10 18:08:58 74° 76° (ENE) 18:12:49 145.860 - 145.880
NUDT-PHONESAT 30 May 18:07:34 18:11:14 57° 74° (ENE) 18:14:55 437.300
XW-2B 30 May 18:13:14 18:17:03 90° 80° (E) 18:20:55 145.730 - 145.750
KAITUO 1B 30 May 18:22:23 18:26:10 88° 251° (WSW) 18:30:00 145.475/437.950
XW-2F 30 May 18:22:33 18:26:21 71° 260° (W) 18:30:11 145.980 - 146.000
XW-2C 30 May 18:27:12 18:30:58 59° 259° (W) 18:34:47 145.795 - 145.815
ISS 30 May 18:29:14 18:31:57 23° 134° (SE) 18:34:39 437.550
KKS-1 30 May 18:32:24 18:36:14 29° 292° (WNW) 18:40:03 437.445
HO-68 30 May 18:33:29 18:40:08 42° 65° (ENE) 18:46:48 435.675
Tancredo 1 30 May 18:48:32 18:51:33 60° 142° (SE) 18:54:35 437.200
STARS 30 May 18:50:13 18:54:21 41° 289° (WNW) 18:58:29 437.465
CUBEBUG 2 30 May 18:59:04 19:02:11 20° 66° (ENE) 19:05:21 437.445
XW-2A 30 May 19:00:16 19:03:16 31° 72° (ENE) 19:06:18 145.665 - 145.685
UWE-3 30 May 19:00:57 19:03:01 13° 62° (ENE) 19:05:07 435.000/436.395/437.385
AAUSAT CUBESAT 2 30 May 19:01:46 19:03:57 14° 64° (ENE) 19:06:07 437.432
DOVE 4 30 May 19:06:16 19:08:43 14° 268° (W) 19:11:08 437.250
STRAND 1 30 May 19:07:41 19:10:45 16° 91° (E) 19:13:48 437.568
CUTE 1.7 + AOD 2 30 May 19:08:37 19:12:47 53° 74° (ENE) 19:16:59 437.475
LilacSat-2 30 May 19:12:02 19:14:36 17° 267° (W) 19:17:12 437.200
CUBESAT XI-V 30 May 19:12:24 19:13:45 11° 300° (WNW) 19:15:06 437.345
CUTE-I 30 May 19:34:57 19:38:47 20° 268° (W) 19:42:38 437.470
PCSat 30 May 19:37:30 19:42:26 35° 309° (NW) 19:47:24 145.827
AO-73 30 May 19:45:43 19:48:55 21° 66° (ENE) 19:52:10 145.935
SEEDS 30 May 19:48:55 19:53:11 84° 258° (WSW) 19:57:27 437.485
ZACube-1 30 May 20:01:45 20:05:34 33° 70° (ENE) 20:09:31 437.345
ISS 30 May 20:05:06 20:08:17 43° 332° (NNW) 20:11:28 437.550
HO-68 30 May 20:21:16 20:27:51 39° 262° (W) 20:34:30 435.675
Tancredo 1 30 May 20:24:59 20:27:29 22° 339° (NNW) 20:30:00 437.200
XW-2A 30 May 20:34:22 20:36:07 13° 268° (W) 20:37:52 145.665 - 145.685
CUBEBUG 2 30 May 20:34:45 20:38:34 34° 264° (W) 20:42:30 437.445
UWE-3 30 May 20:34:47 20:38:56 59° 260° (W) 20:43:13 435.000/436.395/437.385
AAUSAT CUBESAT 2 30 May 20:34:52 20:38:56 53° 260° (W) 20:43:03 437.432
EO-88 30 May 20:43:48 20:45:05 12° 64° (ENE) 20:46:23 145.990 - 145.960
CUTE 1.7 + AOD 2 30 May 20:46:48 20:48:56 13° 270° (W) 20:51:04 437.475
